199P/Shoemaker 4 (2023)

Japanese version
Home page
Updated on March 5, 2023

---------------------------------------------------------------------

* Profile

* Pictures

* Orbital Elements

Epoch 2023 Feb. 25.0 TT = JDT 2460000.5
T 2023 Aug. 7.58132 TT                                  Rudenko
q   2.9102861            (2000.0)            P               Q
n   0.06906419     Peri.  191.77461     +0.22500404     +0.87859045
a   5.8834775      Node    92.34878     -0.85624196     +0.38462001
e   0.5053459      Incl.   24.93594     -0.46499772     -0.28310115
P  14.3
>From 552 observations 2008 May 2-2023 Feb. 26, mean residual 0".6.
     Nongravitational parameters A1 = -0.40, A2 = -0.4283.

* Finding Charts

* Magnitudes Graph

        m1 = 1.5 + 5 log d + 25 log r

---------------------------------------------------------------------

The orbital elements are published on M.P.E.C. 2023-D72.
The charts are made with StellaNavigator Ver.10 (AstroArts).
The magnitudes graphs are made with Comet for Windows.

---------------------------------------------------------------------

Copyright(C) Seiichi Yoshida (comet@aerith.net). All rights reserved.